TGL26FC YMML-ZSPD

Flight info

Callsign TGL26FC
Flight time N/A
Altitude 34000
Route MNG Q76 LAKOT Y80 VOMPA Q165 TL R346 PY B586 UNZ G339 AGIKA Z41 POTET Y592 ONIKU A593 LAMEN/K0895F340 A593 AKARA/K0895S1035 A593 DUMET DUM81A
Aircraft A343/H-SDE2E3FGHIJ4J5M1RWXY/LB1D1

Departure

Time N/A
Airport Melbourne Airport (YMML)

Arrival

Time 2026-05-06 08:16
Airport Shanghai Pudong International Airport (ZSPD)
Time Latitude Longitude Altitude Speed Heading
2026-05-06 07:32 31.87862 125.21413 38048 ft 459 kts 259°
2026-05-06 07:32 31.86218 125.14152 38050 ft 459 kts 259°
2026-05-06 07:33 31.84571 125.06899 38047 ft 460 kts 259°
2026-05-06 07:33 31.82917 124.99637 38045 ft 460 kts 258°
2026-05-06 07:34 31.81308 124.92359 38047 ft 459 kts 259°
2026-05-06 07:34 31.79765 124.85133 38047 ft 459 kts 259°
2026-05-06 07:35 31.78201 124.77854 38040 ft 459 kts 259°
2026-05-06 07:35 31.76622 124.70586 38041 ft 459 kts 259°
2026-05-06 07:36 31.75035 124.63325 38040 ft 459 kts 259°
2026-05-06 07:36 31.73441 124.56053 38042 ft 459 kts 259°
2026-05-06 07:37 31.71845 124.48792 38036 ft 459 kts 259°
2026-05-06 07:37 31.70246 124.41538 38044 ft 459 kts 259°
2026-05-06 07:38 31.68643 124.34287 38042 ft 459 kts 259°
2026-05-06 07:38 31.67036 124.27038 38027 ft 459 kts 259°
2026-05-06 07:39 31.65423 124.19787 38029 ft 459 kts 259°
2026-05-06 07:39 31.63809 124.12545 38038 ft 459 kts 259°
2026-05-06 07:40 31.62189 124.05304 38031 ft 459 kts 259°
2026-05-06 07:40 31.60566 123.98059 38032 ft 459 kts 259°
2026-05-06 07:41 31.59769 123.94447 37683 ft 456 kts 260°
2026-05-06 07:41 31.58982 123.90837 37001 ft 458 kts 260°
2026-05-06 07:41 31.58195 123.87209 36285 ft 461 kts 259°
2026-05-06 07:41 31.57403 123.83560 35593 ft 463 kts 259°
2026-05-06 07:42 31.56603 123.79893 34920 ft 465 kts 259°
2026-05-06 07:42 31.55798 123.76214 34250 ft 467 kts 259°
2026-05-06 07:42 31.54987 123.72527 33495 ft 469 kts 259°
2026-05-06 07:42 31.54170 123.68818 32740 ft 470 kts 259°
2026-05-06 07:43 31.53352 123.65112 32018 ft 470 kts 259°
2026-05-06 07:43 31.52530 123.61400 31303 ft 470 kts 258°
2026-05-06 07:43 31.51708 123.57689 30555 ft 471 kts 258°
2026-05-06 07:43 31.51161 123.55223 30060 ft 472 kts 258°
2026-05-06 07:44 31.50335 123.51500 29171 ft 472 kts 258°
2026-05-06 07:44 31.49285 123.46560 28092 ft 471 kts 260°
2026-05-06 07:44 31.48590 123.42818 27371 ft 469 kts 261°
2026-05-06 07:44 31.47904 123.39098 26674 ft 466 kts 260°
2026-05-06 07:45 31.47214 123.35398 25974 ft 464 kts 260°
2026-05-06 07:45 31.46522 123.31721 25334 ft 460 kts 260°
2026-05-06 07:45 31.46055 123.29254 24908 ft 458 kts 260°
2026-05-06 07:45 31.45366 123.25626 24304 ft 455 kts 260°
2026-05-06 07:46 31.44689 123.22077 23707 ft 451 kts 260°
2026-05-06 07:46 31.44006 123.18502 23016 ft 449 kts 259°
2026-05-06 07:46 31.43325 123.14950 22390 ft 444 kts 259°
2026-05-06 07:46 31.42652 123.11442 21821 ft 439 kts 259°
2026-05-06 07:47 31.41985 123.07974 21189 ft 435 kts 259°
2026-05-06 07:47 31.41323 123.04533 20558 ft 432 kts 259°
2026-05-06 07:47 31.40663 123.01114 19952 ft 429 kts 259°
2026-05-06 07:47 31.40009 122.97727 19362 ft 425 kts 259°
2026-05-06 07:48 31.39359 122.94366 18784 ft 422 kts 259°
2026-05-06 07:48 31.38712 122.91023 18201 ft 419 kts 258°
2026-05-06 07:48 31.38069 122.87708 17511 ft 417 kts 258°
2026-05-06 07:48 31.37430 122.84420 16929 ft 412 kts 258°
2026-05-06 07:49 31.36796 122.81164 16349 ft 408 kts 258°
2026-05-06 07:49 31.36089 122.77970 15902 ft 402 kts 252°
2026-05-06 07:49 31.34949 122.75017 15441 ft 397 kts 243°
2026-05-06 07:49 31.33636 122.72191 14940 ft 393 kts 242°
2026-05-06 07:50 31.32317 122.69414 14501 ft 388 kts 243°
2026-05-06 07:50 31.31021 122.66675 14084 ft 382 kts 242°
2026-05-06 07:50 31.29741 122.63964 13661 ft 378 kts 242°
2026-05-06 07:50 31.28478 122.61284 13230 ft 376 kts 242°
2026-05-06 07:51 31.27570 122.59356 12936 ft 374 kts 242°
2026-05-06 07:51 31.26320 122.56704 12512 ft 372 kts 243°
2026-05-06 07:51 31.25076 122.54061 12128 ft 370 kts 242°
2026-05-06 07:51 31.23836 122.51437 11845 ft 365 kts 242°
2026-05-06 07:52 31.22634 122.48891 11680 ft 352 kts 243°
2026-05-06 07:52 31.21486 122.46463 11512 ft 341 kts 242°
2026-05-06 07:52 31.20364 122.44092 11321 ft 324 kts 243°
2026-05-06 07:52 31.19304 122.41855 10978 ft 300 kts 243°
2026-05-06 07:53 31.18327 122.39787 10334 ft 291 kts 242°
2026-05-06 07:53 31.17345 122.37707 9711 ft 284 kts 242°
2026-05-06 07:53 31.16394 122.35699 9361 ft 282 kts 243°
2026-05-06 07:53 31.15466 122.33737 9143 ft 278 kts 242°
2026-05-06 07:54 31.14523 122.31744 8742 ft 282 kts 242°
2026-05-06 07:54 31.13581 122.29755 8500 ft 278 kts 242°
2026-05-06 07:54 31.12645 122.27778 8145 ft 278 kts 241°
2026-05-06 07:54 31.11707 122.25802 7863 ft 277 kts 242°
2026-05-06 07:55 31.10786 122.23862 7702 ft 269 kts 241°
2026-05-06 07:55 31.09926 122.21958 7528 ft 263 kts 247°
2026-05-06 07:55 31.09590 122.19898 7331 ft 258 kts 273°
2026-05-06 07:55 31.10138 122.17951 6897 ft 255 kts 302°
2026-05-06 07:56 31.11375 122.16448 6418 ft 260 kts 317°
2026-05-06 07:56 31.12775 122.15122 6147 ft 259 kts 321°
2026-05-06 07:56 31.14376 122.14163 5904 ft 261 kts 345°
2026-05-06 07:56 31.16173 122.14181 5656 ft 262 kts 17°
2026-05-06 07:57 31.17759 122.15225 5432 ft 264 kts 40°
2026-05-06 07:57 31.19021 122.16512 5260 ft 261 kts 44°
2026-05-06 07:58 31.23220 122.20949 4861 ft 260 kts 41°
2026-05-06 07:58 31.24759 122.22049 4752 ft 262 kts 28°
2026-05-06 07:58 31.26417 122.22979 4657 ft 264 kts 26°
2026-05-06 07:58 31.28067 122.23868 4540 ft 259 kts 26°
2026-05-06 07:59 31.29709 122.24759 4476 ft 261 kts 26°
2026-05-06 07:59 31.31331 122.25639 4365 ft 255 kts 26°
2026-05-06 07:59 31.32963 122.26519 4259 ft 262 kts 25°
2026-05-06 07:59 31.34704 122.27121 4166 ft 258 kts 12°
2026-05-06 08:00 31.36486 122.27462 4053 ft 263 kts
2026-05-06 08:00 31.38280 122.27767 3956 ft 257 kts
2026-05-06 08:00 31.40076 122.28071 3857 ft 265 kts
2026-05-06 08:00 31.41898 122.28263 3774 ft 260 kts 357°
2026-05-06 08:01 31.43585 122.27683 3659 ft 252 kts 327°
2026-05-06 08:01 31.44787 122.26219 3534 ft 251 kts 296°
2026-05-06 08:01 31.45208 122.24284 3424 ft 245 kts 264°
2026-05-06 08:01 31.45106 122.22292 3358 ft 245 kts 264°
2026-05-06 08:02 31.45056 122.20305 3249 ft 246 kts 264°
2026-05-06 08:02 31.45034 122.18296 3174 ft 246 kts 266°
2026-05-06 08:02 31.45028 122.16302 3068 ft 246 kts 265°
2026-05-06 08:02 31.45024 122.14316 3014 ft 248 kts 267°
2026-05-06 08:03 31.45021 122.12278 3002 ft 247 kts 266°
2026-05-06 08:03 31.45021 122.10304 3009 ft 245 kts 268°
2026-05-06 08:03 31.45022 122.08304 2987 ft 246 kts 265°
2026-05-06 08:03 31.45026 122.06330 2925 ft 238 kts 265°
2026-05-06 08:04 31.45025 122.04426 2821 ft 230 kts 267°
2026-05-06 08:04 31.45024 122.02576 2717 ft 225 kts 267°
2026-05-06 08:04 31.45022 122.00740 2578 ft 228 kts 264°
2026-05-06 08:04 31.45019 121.98883 2503 ft 227 kts 264°
2026-05-06 08:05 31.45017 121.97047 2428 ft 225 kts 266°
2026-05-06 08:05 31.45015 121.95213 2352 ft 225 kts 266°
2026-05-06 08:05 31.45014 121.93391 2280 ft 224 kts 266°
2026-05-06 08:05 31.45012 121.91558 2175 ft 226 kts 264°
2026-05-06 08:06 31.45008 121.89723 2075 ft 223 kts 266°
2026-05-06 08:06 31.45008 121.87916 2005 ft 223 kts 265°
2026-05-06 08:06 31.45004 121.86091 2005 ft 225 kts 265°
2026-05-06 08:06 31.45001 121.84260 1994 ft 224 kts 267°
2026-05-06 08:07 31.44953 121.82452 1995 ft 220 kts 257°
2026-05-06 08:07 31.44629 121.80734 1988 ft 212 kts 251°
2026-05-06 08:07 31.44265 121.79117 1997 ft 198 kts 252°
2026-05-06 08:07 31.43938 121.77595 1993 ft 189 kts 251°
2026-05-06 08:08 31.43628 121.76100 2002 ft 189 kts 251°
2026-05-06 08:08 31.43330 121.74611 2030 ft 189 kts 251°
2026-05-06 08:08 31.42863 121.73209 1996 ft 183 kts 231°
2026-05-06 08:08 31.41893 121.72384 1992 ft 170 kts 187°
2026-05-06 08:09 31.40726 121.72424 1992 ft 168 kts 169°
2026-05-06 08:09 31.39574 121.72718 1992 ft 172 kts 164°
2026-05-06 08:09 31.38424 121.73122 1993 ft 173 kts 162°
2026-05-06 08:09 31.37337 121.73537 1987 ft 158 kts 161°
2026-05-06 08:10 31.36347 121.73918 1993 ft 143 kts 161°
2026-05-06 08:10 31.35437 121.74265 1999 ft 135 kts 162°
2026-05-06 08:10 31.34548 121.74594 2014 ft 132 kts 162°
2026-05-06 08:10 31.33696 121.74910 1927 ft 124 kts 162°
2026-05-06 08:11 31.32894 121.75211 1891 ft 122 kts 162°
2026-05-06 08:11 31.32072 121.75523 1910 ft 126 kts 162°
2026-05-06 08:11 31.31237 121.75841 1895 ft 126 kts 162°
2026-05-06 08:11 31.30397 121.76162 1893 ft 128 kts 163°
2026-05-06 08:12 31.29546 121.76486 1909 ft 129 kts 162°
2026-05-06 08:12 31.28700 121.76808 1893 ft 126 kts 161°
2026-05-06 08:12 31.27875 121.77122 1893 ft 124 kts 161°
2026-05-06 08:12 31.27065 121.77429 1884 ft 122 kts 161°
2026-05-06 08:13 31.26254 121.77737 1894 ft 122 kts 162°
2026-05-06 08:13 31.25442 121.78045 1888 ft 124 kts 163°
2026-05-06 08:13 31.24595 121.78366 1795 ft 129 kts 162°
2026-05-06 08:13 31.23743 121.78690 1620 ft 128 kts 161°
2026-05-06 08:14 31.22900 121.79010 1440 ft 128 kts 160°
2026-05-06 08:14 31.22048 121.79333 1274 ft 129 kts 160°
2026-05-06 08:14 31.21202 121.79653 1090 ft 127 kts 160°
2026-05-06 08:14 31.20363 121.79971 928 ft 126 kts 161°
2026-05-06 08:15 31.19532 121.80286 760 ft 125 kts 159°
2026-05-06 08:15 31.18702 121.80602 609 ft 125 kts 160°
2026-05-06 08:15 31.17884 121.80911 425 ft 125 kts 160°
2026-05-06 08:15 31.17043 121.81229 295 ft 127 kts 161°
2026-05-06 08:16 31.16212 121.81544 149 ft 128 kts 159°
2026-05-06 08:16 31.15355 121.81872 33 ft 126 kts 161°
2026-05-06 08:16 31.14676 121.82130 29 ft 79 kts 162°
2026-05-06 08:16 31.14316 121.82262 27 ft 29 kts 162°
2026-05-06 08:17 31.14152 121.82312 26 ft 23 kts 173°
2026-05-06 08:17 31.14000 121.82302 26 ft 21 kts 189°
2026-05-06 08:17 31.13864 121.82275 27 ft 19 kts 189°
2026-05-06 08:17 31.13735 121.82275 27 ft 11 kts 169°
2026-05-06 08:18 31.13685 121.82263 27 ft 6 kts 218°
2026-05-06 08:18 31.13663 121.82215 27 ft 7 kts 248°
2026-05-06 08:18 31.13642 121.82154 27 ft 9 kts 249°
2026-05-06 08:18 31.13620 121.82081 27 ft 11 kts 252°
2026-05-06 08:19 31.13591 121.81972 29 ft 17 kts 252°
2026-05-06 08:19 31.13553 121.81833 26 ft 18 kts 252°
2026-05-06 08:19 31.13513 121.81688 27 ft 19 kts 252°
2026-05-06 08:19 31.13480 121.81586 27 ft 12 kts 236°
2026-05-06 08:20 31.13448 121.81513 27 ft 9 kts 261°
2026-05-06 08:20 31.13444 121.81471 27 ft 2 kts 265°
2026-05-06 08:20 31.13444 121.81468 27 ft 0 kts 265°